Flag for United Kingdom Weather past 2 weeks in Durham, England, United Kingdom

45 °F

Passing clouds.

Feels Like: 39 °F
Forecast: 40 / 51 °F
Wind: 12 mph from West

Location: Newcastle

Current Time: Nov 26, 2015 at 9:42:41 AM

Latest Report: Nov 26, 2015 at 9:20 AM

Visibility: N/A

Pressure: 30.01 "Hg

Humidity: 93%

Dew point: 43 °F

Location of DurhamLocation

Historic Weather in Durham — Graph


Durham temperature yesterday

Maximum temperature yesterday: 46 °F (at 11:50 AM)
Minimum temperature yesterday: 39 °F (at 12:50 AM)
Average temperature yesterday: 42 °F

Past Weeks' High & Low Weather Summary

High61 °F (Nov 15, 12:20 PM)100% (Nov 11, 10:20 AM)30.18 "Hg (Nov 11, 10:20 AM)
Low30 °F (Nov 21, 5:20 PM)60% (Nov 21, 12:20 PM)29.06 "Hg (Nov 17, 4:50 PM)
Average44 °F82%29.71 "Hg
* Reported Nov 11 8:20 AM — Nov 26 8:20 AM, Durham, Weather by CustomWeather, © 2015

Note: Actual official high and low records may vary slightly from our data, if they occured in-between our weather recording intervals... More about our weather records


Durham weather history for previous 24 hours

Time TempWeatherWind HumidityBarometerVisibility
8:20 AM
Thu, Nov 26
45 °FPassing clouds.10 mph93%30.01 "HgN/A
7:50 AM43 °FPassing clouds.5 mph93%30.01 "HgN/A
7:20 AM41 °FPassing clouds.7 mph100%30.01 "HgN/A
6:20 AM39 °FPassing clouds.6 mph100%30.01 "HgN/A
5:50 AM41 °FPassing clouds.5 mph93%30.01 "HgN/A
5:20 AM41 °FPassing clouds.7 mph93%29.98 "HgN/A
4:50 AM41 °FPassing clouds.8 mph93%29.98 "HgN/A
4:20 AM41 °FPassing clouds.5 mph93%29.98 "HgN/A
3:50 AM43 °FPassing clouds.6 mph93%29.98 "HgN/A
2:50 AM39 °FPassing clouds.1 mph93%29.98 "HgN/A
2:20 AM39 °FPassing clouds.6 mph93%29.95 "HgN/A
1:50 AM41 °FPassing clouds.7 mph93%29.98 "HgN/A
12:50 AM43 °FPassing clouds.3 mph93%29.95 "HgN/A
12:20 AM43 °FPassing clouds.6 mph87%29.95 "HgN/A
11:20 PM
Wed, Nov 25
43 °FClear.5 mph87%29.95 "Hg10 mi
10:50 PM43 °FLight rain. Passing clouds.7 mph87%29.95 "HgN/A
10:20 PM43 °FLight rain. Passing clouds.7 mph87%29.95 "HgN/A
9:50 PM43 °FClear.5 mph87%29.95 "Hg10 mi
9:20 PM41 °FClear.8 mph87%29.95 "Hg10 mi
8:50 PM43 °FClear.8 mph87%29.92 "Hg10 mi
8:20 PM43 °FClear.6 mph87%29.92 "Hg10 mi
7:50 PM43 °FClear.7 mph87%29.92 "Hg10 mi
7:20 PM43 °FPassing clouds.5 mph87%29.92 "HgN/A
6:50 PM43 °FPassing clouds.5 mph87%29.92 "HgN/A
6:20 PM43 °FClear.8 mph87%29.92 "Hg10 mi
5:50 PM43 °FClear.7 mph87%29.89 "Hg10 mi
5:20 PM43 °FClear.7 mph87%29.89 "Hg10 mi
4:50 PM45 °FPassing clouds.10 mph81%29.89 "HgN/A
4:20 PM45 °FPassing clouds.10 mph81%29.86 "HgN/A
3:50 PM45 °FPassing clouds.9 mph81%29.86 "HgN/A
3:20 PM45 °FScattered clouds.10 mph81%29.86 "HgN/A
2:50 PM46 °FPassing clouds.10 mph76%29.83 "HgN/A
2:20 PM46 °FPassing clouds.12 mph76%29.83 "HgN/A
1:50 PM46 °FPassing clouds.10 mph76%29.83 "HgN/A
1:20 PM46 °FSunny.12 mph76%29.83 "Hg10 mi
12:50 PM46 °FSunny.10 mph76%29.83 "Hg10 mi
12:20 PM46 °FSunny.10 mph76%29.83 "Hg10 mi
11:50 AM46 °FSunny.12 mph76%29.83 "Hg10 mi
11:20 AM45 °FSunny.12 mph81%29.80 "Hg10 mi
10:50 AM45 °FSunny.13 mph81%29.80 "Hg10 mi
10:20 AM43 °FSunny.12 mph87%29.80 "Hg10 mi
9:50 AM43 °FSunny.12 mph87%29.80 "Hg10 mi
9:20 AM41 °FSunny.9 mph87%29.77 "Hg10 mi
Weather by CustomWeather, © 2015

See weather overviewHow to use our weather pages